• In Uzbekistan
  • List of Countries
  • For 7 days
  • Water Temperature
  • Weather Map
  • Weather Widgets
  • user-avatar
    Login

    Hourly Weather Multan

    Today, 3 April, Friday

    Time Temperature Precipitation Wind Pressure Humidity
    00:00 +22°C° 0 mm 3 mps 749 mmHg 29%
    01:00 +21°C° 0 mm 3 mps 749 mmHg 30%
    02:00 +21°C° 0 mm 2 mps 749 mmHg 31%
    03:00 +20°C° 0 mm 2 mps 749 mmHg 34%
    04:00 +20°C° 0 mm 1 mps 749 mmHg 36%
    05:00 +19°C° 0 mm 2 mps 749 mmHg 38%
    06:00 +21°C° 0 mm 1 mps 750 mmHg 36%
    07:00 +22°C° 0 mm 1 mps 750 mmHg 34%
    08:00 +24°C° 0 mm 1 mps 750 mmHg 32%
    09:00 +26°C° 0 mm 1 mps 750 mmHg 28%
    10:00 +29°C° 0 mm 1 mps 750 mmHg 23%
    11:00 +32°C° 0 mm 1 mps 750 mmHg 19%
    12:00 +33°C° 0 mm 1 mps 750 mmHg 17%
    13:00 +33°C° 0 mm 1 mps 749 mmHg 15%
    14:00 +35°C° 0 mm 2 mps 749 mmHg 13%
    15:00 +35°C° 0 mm 1 mps 748 mmHg 12%
    16:00 +35°C° 0 mm 1 mps 748 mmHg 11%
    17:00 +35°C° 0 mm 1 mps 747 mmHg 11%
    18:00 +32°C° 0 mm 1 mps 747 mmHg 13%
    19:00 +30°C° 0 mm 2 mps 748 mmHg 16%
    20:00 +28°C° 0 mm 3 mps 748 mmHg 18%
    21:00 +27°C° 0 mm 3 mps 748 mmHg 20%
    22:00 +26°C° 0 mm 3 mps 748 mmHg 23%
    23:00 +25°C° 0 mm 2 mps 749 mmHg 25%

    Tomorrow, 4 April, Saturday

    Time Temperature Precipitation Wind Pressure Humidity
    00:00 +25°C° 0 mm 2 mps 748 mmHg 26%
    01:00 +24°C° 0 mm 2 mps 748 mmHg 27%
    02:00 +24°C° 0 mm 2 mps 748 mmHg 27%
    03:00 +23°C° 0 mm 2 mps 748 mmHg 29%
    04:00 +23°C° 0 mm 2 mps 748 mmHg 30%
    05:00 +21°C° 0 mm 2 mps 748 mmHg 31%
    06:00 +23°C° 0 mm 2 mps 749 mmHg 30%
    07:00 +24°C° 0 mm 2 mps 749 mmHg 28%
    08:00 +26°C° 0 mm 2 mps 750 mmHg 27%
    09:00 +28°C° 0 mm 2 mps 750 mmHg 23%
    10:00 +31°C° 0 mm 1 mps 750 mmHg 20%
    11:00 +33°C° 0 mm 1 mps 750 mmHg 17%
    12:00 +34°C° 0 mm 1 mps 749 mmHg 15%
    13:00 +35°C° 0 mm 1 mps 748 mmHg 14%
    14:00 +36°C° 0 mm 1 mps 748 mmHg 12%
    15:00 +37°C° 0 mm 2 mps 747 mmHg 13%
    16:00 +37°C° 0 mm 3 mps 747 mmHg 14%
    17:00 +36°C° 0 mm 4 mps 746 mmHg 15%
    18:00 +34°C° 0.2 mm 4 mps 747 mmHg 19%
    19:00 +32°C° 0.2 mm 4 mps 747 mmHg 23%
    20:00 +29°C° 0.2 mm 4 mps 748 mmHg 27%
    21:00 +27°C° 0.4 mm 3 mps 748 mmHg 36%
    22:00 +26°C° 0.4 mm 3 mps 748 mmHg 45%
    23:00 +24°C° 0.4 mm 2 mps 748 mmHg 53%

    Day after tomorrow, 5 April, Sunday

    Time Temperature Precipitation Wind Pressure Humidity
    00:00 +24°C° 0.2 mm 2 mps 748 mmHg 52%
    01:00 +24°C° 0.2 mm 2 mps 748 mmHg 52%
    02:00 +24°C° 0.2 mm 2 mps 748 mmHg 51%
    03:00 +24°C° 0.1 mm 1 mps 748 mmHg 52%
    04:00 +24°C° 0.1 mm 1 mps 748 mmHg 53%
    05:00 +24°C° 0.1 mm 1 mps 748 mmHg 54%
    06:00 +25°C° 0 mm 1 mps 748 mmHg 50%
    07:00 +26°C° 0 mm 1 mps 749 mmHg 46%
    08:00 +27°C° 0 mm 1 mps 749 mmHg 42%
    09:00 +29°C° 0 mm 1 mps 749 mmHg 36%
    10:00 +31°C° 0 mm 1 mps 749 mmHg 30%
    11:00 +34°C° 0 mm 1 mps 749 mmHg 24%
    12:00 +35°C° 0 mm 1 mps 748 mmHg 21%
    13:00 +37°C° 0 mm 2 mps 748 mmHg 17%
    14:00 +38°C° 0 mm 3 mps 747 mmHg 14%
    15:00 +38°C° 0 mm 3 mps 746 mmHg 13%
    16:00 +37°C° 0 mm 2 mps 746 mmHg 12%
    17:00 +37°C° 0 mm 2 mps 745 mmHg 12%
    18:00 +35°C° 0 mm 2 mps 746 mmHg 14%
    19:00 +32°C° 0 mm 2 mps 746 mmHg 16%
    20:00 +30°C° 0 mm 2 mps 747 mmHg 18%
    21:00 +29°C° 0 mm 2 mps 747 mmHg 20%
    22:00 +29°C° 0 mm 2 mps 747 mmHg 21%
    23:00 +28°C° 0 mm 2 mps 747 mmHg 22%

    6 April, Monday

    Time Temperature Precipitation Wind Pressure Humidity
    00:00 +27°C° 0 mm 2 mps 747 mmHg 24%
    01:00 +26°C° 0 mm 2 mps 747 mmHg 27%
    02:00 +26°C° 0 mm 2 mps 747 mmHg 29%
    03:00 +25°C° 0 mm 2 mps 747 mmHg 30%
    04:00 +24°C° 0 mm 2 mps 747 mmHg 32%
    05:00 +24°C° 0 mm 2 mps 747 mmHg 34%
    06:00 +25°C° 0 mm 2 mps 747 mmHg 33%
    07:00 +26°C° 0 mm 3 mps 748 mmHg 31%
    08:00 +27°C° 0 mm 3 mps 749 mmHg 30%
    09:00 +29°C° 0 mm 3 mps 748 mmHg 27%
    10:00 +33°C° 0 mm 3 mps 748 mmHg 23%
    11:00 +35°C° 0 mm 2 mps 748 mmHg 20%
    12:00 +36°C° 0 mm 2 mps 747 mmHg 18%
    13:00 +38°C° 0 mm 2 mps 747 mmHg 16%
    14:00 +39°C° 0 mm 1 mps 746 mmHg 14%
    15:00 +39°C° 0 mm 1 mps 745 mmHg 13%
    16:00 +39°C° 0 mm 2 mps 744 mmHg 13%
    17:00 +39°C° 0 mm 2 mps 744 mmHg 13%
    18:00 +36°C° 0 mm 4 mps 744 mmHg 18%
    19:00 +33°C° 0 mm 6 mps 744 mmHg 23%
    20:00 +29°C° 0 mm 7 mps 745 mmHg 29%
    21:00 +28°C° 0 mm 8 mps 745 mmHg 35%
    22:00 +27°C° 0 mm 9 mps 746 mmHg 41%
    23:00 +24°C° 0 mm 11 mps 746 mmHg 48%

    7 April, Tuesday

    Time Temperature Precipitation Wind Pressure Humidity
    00:00 +24°C° 0 mm 11 mps 746 mmHg 51%
    01:00 +23°C° 0 mm 11 mps 746 mmHg 55%
    02:00 +22°C° 0 mm 11 mps 746 mmHg 58%
    03:00 +22°C° 0.3 mm 10 mps 746 mmHg 59%
    04:00 +22°C° 0.3 mm 10 mps 746 mmHg 60%
    05:00 +21°C° 0.3 mm 9 mps 746 mmHg 61%
    06:00 +21°C° 0.1 mm 9 mps 746 mmHg 60%
    07:00 +22°C° 0.1 mm 9 mps 746 mmHg 59%
    08:00 +22°C° 0.1 mm 9 mps 747 mmHg 57%
    09:00 +23°C° 0.2 mm 9 mps 747 mmHg 53%
    10:00 +24°C° 0.2 mm 9 mps 747 mmHg 48%
    11:00 +27°C° 0.2 mm 9 mps 747 mmHg 44%
    12:00 +28°C° 0 mm 8 mps 746 mmHg 41%
    13:00 +29°C° 0 mm 7 mps 746 mmHg 37%
    14:00 +30°C° 0 mm 6 mps 745 mmHg 34%
    15:00 +30°C° 0 mm 6 mps 745 mmHg 34%
    16:00 +29°C° 0 mm 6 mps 744 mmHg 34%
    17:00 +29°C° 0 mm 5 mps 744 mmHg 35%
    18:00 +28°C° 0 mm 5 mps 744 mmHg 39%
    19:00 +26°C° 0 mm 5 mps 745 mmHg 43%
    20:00 +25°C° 0 mm 5 mps 746 mmHg 47%
    21:00 +23°C° 0 mm 4 mps 746 mmHg 52%
    22:00 +22°C° 0 mm 4 mps 746 mmHg 57%
    23:00 +21°C° 0 mm 3 mps 746 mmHg 62%

    8 April, Wednesday

    Time Temperature Precipitation Wind Pressure Humidity
    00:00 +21°C° 0 mm 3 mps 746 mmHg 61%
    01:00 +21°C° 0 mm 3 mps 745 mmHg 60%
    02:00 +21°C° 0 mm 3 mps 745 mmHg 59%
    03:00 +21°C° 0 mm 3 mps 745 mmHg 58%
    04:00 +21°C° 0 mm 2 mps 744 mmHg 57%
    05:00 +21°C° 0 mm 2 mps 744 mmHg 56%
    06:00 +23°C° 0 mm 2 mps 744 mmHg 50%
    07:00 +25°C° 0 mm 3 mps 745 mmHg 44%
    08:00 +27°C° 0 mm 3 mps 745 mmHg 38%
    09:00 +29°C° 0 mm 3 mps 745 mmHg 33%
    10:00 +32°C° 0 mm 4 mps 746 mmHg 27%
    11:00 +34°C° 0 mm 4 mps 746 mmHg 21%
    12:00 +35°C° 0 mm 4 mps 745 mmHg 20%
    13:00 +36°C° 0 mm 3 mps 745 mmHg 18%
    14:00 +37°C° 0 mm 3 mps 744 mmHg 16%
    15:00 +37°C° 0 mm 3 mps 743 mmHg 16%
    16:00 +37°C° 0 mm 2 mps 743 mmHg 15%
    17:00 +37°C° 0 mm 2 mps 742 mmHg 15%
    18:00 +35°C° 0 mm 2 mps 742 mmHg 17%
    19:00 +32°C° 0 mm 2 mps 742 mmHg 19%
    20:00 +30°C° 0 mm 2 mps 742 mmHg 22%
    21:00 +29°C° 0 mm 2 mps 743 mmHg 23%
    22:00 +29°C° 0 mm 2 mps 743 mmHg 24%
    23:00 +28°C° 0 mm 3 mps 743 mmHg 25%
    Show more